Find Anik F2

NORAD ID: 28378 Int'l Des: 2004-027 Owner: TCAN Country: CA operational
HEOCIRCULARGSO

当前视图

正在加载3D地球...

关于 Anik F2

正在加载描述...

即将过境

Passes for default location (London). Set your location on the main map for personalized predictions.

高度历史

Loading altitude history...

两行轨道根数

1 28378U 04027A 26150.83755328 -.00000039 00000-0 00000+0 0 9998
2 28378 3.2432 79.6726 0004611 355.9111 3.1502 1.00272186 41089
Epoch: May 30, 2026 • Age: 7 hours

当前状态

高度 35792.4 km
速度 3.07 km/s
星下点 3.10°N, 111.06°W
发射日期 Jul 18, 2004
运行时间 21.8 years
类型 other

技术详情

分类 Payload
质量 5965.00 kg
干质量 3700.00 kg
总质量 5965.00 kg
长度 6.20 m
直径 3.50 m
跨度 45.60 m
形状 Box + 2 Pan
制造商 BOES
平台类型 BSS-702HP
阶段状态 In Orbit
所有者/国家 TCAN/CA

Most Searched